User: anonymous   Login
Location: Caseificio
(44.7500°N, 11.0500°E)
Time: 08:33:30
(UTC+00:00)
Language:

SL-16 R/B - Orbit

View from above orbital plane
View from above orbital plane
View from above satellite
View from above satellite

Ground track
Ground track

The orbit data is extracted from the following two-line orbital elements,

1 27006U 01056F   22224.82200715 -.00000034  00000-0  11977-4 0  9991
2 27006  99.5847   0.3789 0015459 105.9625  52.3793 13.70981614 34385
Epoch (UTC): 12 August 2022 19:43:41
Eccentricity: 0.0015459
inclination: 99.5847°
perigee height: 984 km
apogee height: 1007 km
right ascension of ascending node: 0.3789°
argument of perigee: 105.9625°
revolutions per day: 13.70981614
mean anomaly at epoch: 52.3793°
orbit number at epoch: 3438

The dashed part of the orbit path shows where the satellite is in the earth's shadow,  

DLR